Amsterdam, Netherlands

5:44 AM CET on January 18, 2017 (GMT +0100)
Amsterdam

Weather History for 06240 - July, 2013

Change the Weather History Date:

Wednesday, July 31, 2013

  Actual Average Record
Temperature  
Mean Temperature 66 °F -  
Max Temperature 71 °F 69 °F - ()
Min Temperature 62 °F 55 °F - ()
Cooling Degree Days 2    
Growing Degree Days 16 (Base 50)    
Moisture  
Dew Point 62 °F    
Average Humidity 83    
Maximum Humidity 94    
Minimum Humidity 55    
Precipitation  
Precipitation 0.01 in - - ()
Sea Level Pressure  
Sea Level Pressure 29.98 in    
Wind  
Wind Speed 13 mph ()    
Max Wind Speed 20 mph    
Max Gust Speed -    
Visibility 6.8 miles    
Events Rain    
T = Trace of Precipitation, MM = Missing Value Source: Averaged Metar Reports

Daily Weather History Graph

Daily Weather History Graph

Search for Another Location

Airport or City:

Trip Planner

Search our weather history database for the weather conditions in past years. The results will help you decide how hot, cold, wet, or windy it might be!

Date:

Astronomy

Jul. 31, 2013 Rise Set
Actual Time 5:59 AM CEST 9:33 PM CEST
Civil Twilight 5:17 AM CEST 10:15 PM CEST
Nautical Twilight 4:20 AM CEST 11:12 PM CEST
Astronomical Twilight 2:52 AM CEST 12:36 AM CEST
Moon 12:47 AM CEST (7/31) 4:36 PM CEST (7/31)
Length of Visible Light 16h 57m
Length of Day
15h 33m
Waning Crescent, 34% of the Moon is Illuminated
Jul 31
Waning Crescent
Aug 6
New
Aug 14
First Quarter
Aug 21
Full
Aug 28
Last Quarter

Hourly Weather History & Observations

Time (CEST) Temp. Dew Point Humidity Pressure Visibility Wind Dir Wind Speed Gust Speed Precip Events Conditions
12:25 AM 64.4 °F 62.6 °F 94% 29.89 in 6.2 mi WSW 18.4 mph - N/A   Mostly Cloudy
12:55 AM 64.4 °F 62.6 °F 94% 29.89 in 6.2 mi West 18.4 mph - N/A   Mostly Cloudy
1:25 AM 64.4 °F 62.6 °F 94% 29.89 in 6.2 mi West 16.1 mph - N/A   Mostly Cloudy
1:55 AM 64.4 °F 62.6 °F 94% 29.89 in 6.2 mi West 16.1 mph - N/A   Mostly Cloudy
2:00 AM 64 °F 63 °F 94% 29.91 in 7 mi West 15.7 mph - -   Partly Cloudy
2:25 AM 64.4 °F 62.6 °F 94% 29.89 in 6.2 mi West 15.0 mph - N/A   Mostly Cloudy
2:55 AM 64.4 °F 62.6 °F 94% 29.89 in 6.2 mi West 13.8 mph - N/A   Mostly Cloudy
3:25 AM 64.4 °F 62.6 °F 94% 29.92 in 6.2 mi West 12.7 mph - N/A   Mostly Cloudy
3:55 AM 64.4 °F 62.6 °F 94% 29.92 in 6.2 mi West 15.0 mph - N/A   Mostly Cloudy
4:25 AM 64.4 °F 62.6 °F 94% 29.92 in 6.2 mi WSW 15.0 mph - N/A   Mostly Cloudy
4:55 AM 64.4 °F 62.6 °F 94% 29.92 in 6.2 mi WSW 12.7 mph - N/A   Mostly Cloudy
5:00 AM 64 °F 63 °F 94% 29.93 in 6 mi WSW 11.2 mph - -   Overcast
5:25 AM 64.4 °F 62.6 °F 94% 29.92 in 6.2 mi WSW 12.7 mph - N/A   Mostly Cloudy
5:55 AM 64.4 °F 62.6 °F 94% 29.92 in 6.2 mi WSW 13.8 mph - N/A   Mostly Cloudy
6:25 AM 64.4 °F 62.6 °F 94% 29.92 in 6.2 mi WSW 12.7 mph - N/A   Scattered Clouds
6:55 AM 64.4 °F 62.6 °F 94% 29.95 in 6.2 mi WSW 10.4 mph - N/A   Scattered Clouds
7:25 AM 64.4 °F 62.6 °F 94% 29.95 in 6.2 mi WSW 11.5 mph - N/A   Partly Cloudy
7:55 AM 66.2 °F 60.8 °F 83% 29.95 in 6.2 mi WSW 12.7 mph - N/A   Partly Cloudy
8:00 AM 65 °F 61 °F 83% 29.97 in 12 mi WSW 11.2 mph - -   Partly Cloudy
8:25 AM 66.2 °F 60.8 °F 83% 29.95 in 6.2 mi WSW 15.0 mph - N/A   Partly Cloudy
8:55 AM 66.2 °F 60.8 °F 83% 29.98 in 6.2 mi West 15.0 mph - N/A   Partly Cloudy
9:25 AM 66.2 °F 60.8 °F 83% 29.98 in 6.2 mi West 13.8 mph - N/A   Partly Cloudy
9:55 AM 68.0 °F 60.8 °F 78% 29.98 in 6.2 mi WSW 15.0 mph - N/A   Partly Cloudy
10:25 AM 68.0 °F 60.8 °F 78% 30.01 in 6.2 mi West 15.0 mph - N/A   Partly Cloudy
10:55 AM 69.8 °F 59.0 °F 68% 30.01 in 6.2 mi West 16.1 mph - N/A   Partly Cloudy
11:00 AM 68 °F 58 °F 63% 30.02 in 19 mi WSW 15.7 mph - -   Partly Cloudy
11:25 AM 66.2 °F 59.0 °F 78% 30.01 in 6.2 mi WSW 15.0 mph - N/A   Partly Cloudy
11:55 AM 68.0 °F 59.0 °F 73% 30.01 in 6.2 mi West 15.0 mph - N/A   Partly Cloudy
12:25 PM 69.8 °F 60.8 °F 73% 30.01 in 6.2 mi West 16.1 mph - N/A   Partly Cloudy
12:55 PM 71.6 °F 60.8 °F 69% 30.04 in 6.2 mi West 17.3 mph - N/A   Scattered Clouds
1:25 PM 69.8 °F 59.0 °F 68% 30.04 in 6.2 mi WSW 16.1 mph - N/A   Partly Cloudy
1:55 PM 69.8 °F 59.0 °F 68% 30.04 in 6.2 mi WSW 16.1 mph - N/A   Partly Cloudy
2:00 PM 71 °F 58 °F 55% 30.05 in 18 mi WSW 17.9 mph - -   Partly Cloudy
2:25 PM 69.8 °F 57.2 °F 64% 30.04 in 6.2 mi WSW 18.4 mph - N/A   Partly Cloudy
2:55 PM 69.8 °F 59.0 °F 68% 30.04 in 6.2 mi WSW 19.6 mph - N/A   Partly Cloudy
3:25 PM 69.8 °F 59.0 °F 68% 30.04 in 6.2 mi WSW 17.3 mph - N/A   Scattered Clouds
3:55 PM 68.0 °F 57.2 °F 68% 30.04 in 6.2 mi WSW 13.8 mph - N/A Rain Light Rain
4:25 PM 64.4 °F 60.8 °F 88% 30.04 in 6.2 mi West 8.1 mph - N/A   Mostly Cloudy
4:55 PM 66.2 °F 60.8 °F 83% 30.04 in 6.2 mi WSW 10.4 mph - N/A   Mostly Cloudy
5:00 PM 67 °F 60 °F 73% 30.05 in 28 mi WSW 13.4 mph - - Rain Rain
5:25 PM 68.0 °F 60.8 °F 78% 30.04 in 6.2 mi SW 9.2 mph - N/A   Mostly Cloudy
5:55 PM 68.0 °F 62.6 °F 83% 30.04 in 6.2 mi SW 10.4 mph - N/A   Mostly Cloudy
6:25 PM 68.0 °F 62.6 °F 83% 30.01 in 6.2 mi SSW 11.5 mph - N/A   Mostly Cloudy
6:55 PM 68.0 °F 64.4 °F 88% 30.01 in 6.2 mi SW 6.9 mph - N/A Rain Light Rain
7:25 PM 69.8 °F 64.4 °F 83% 30.01 in 6.2 mi WSW 9.2 mph - N/A   Mostly Cloudy
7:55 PM 68.0 °F 64.4 °F 88% 30.01 in 6.2 mi WSW 12.7 mph - N/A   Mostly Cloudy
8:00 PM 69 °F 63 °F 77% 30.03 in 25 mi WSW 11.2 mph - - Rain Drizzle
8:25 PM 68.0 °F 62.6 °F 83% 30.01 in 6.2 mi WSW 12.7 mph - N/A   Partly Cloudy
8:55 PM 68.0 °F 62.6 °F 83% 30.01 in 6.2 mi SW 11.5 mph - N/A   Partly Cloudy
9:25 PM 68.0 °F 62.6 °F 83% 30.01 in - SW 11.5 mph - N/A   Clear
9:55 PM 68.0 °F 62.6 °F 83% 30.01 in - SSW 6.9 mph - N/A   Clear
10:25 PM 68.0 °F 64.4 °F 88% 30.01 in - South 6.9 mph - N/A   Clear
10:55 PM 68.0 °F 64.4 °F 88% 30.01 in - SSW 5.8 mph - N/A   Clear
11:00 PM 67 °F 64 °F 86% 30.03 in 22 mi South 4.5 mph - -   Overcast
11:25 PM 68.0 °F 64.4 °F 88% 30.01 in - South 6.9 mph - N/A   Clear
11:55 PM 68.0 °F 64.4 °F 88% 30.01 in 6.2 mi South 5.8 mph - N/A   Mostly Cloudy